This is the latest recevied weather packets stored in our database for station/object KI5GCD-13. If no packets are shown the sender has not sent any weather packets the latest 10 day(s).
| Time | Temp. | Humidity | Pressure | Rain* | Wind** | Luminosity | Snow |
|---|---|---|---|---|---|---|---|
| 1777476287 | 13.33° C | 75% | 1015.4 hPa | 0 mm | 2.24 m/s, 325° | - | - |
| 1777475987 | 13.33° C | 76% | 1015.2 hPa | 0 mm | 1.79 m/s, 26° | - | - |
| 1777475687 | 12.78° C | 75% | 1015.6 hPa | 0 mm | 3.13 m/s, 58° | - | - |
| 1777475387 | 12.78° C | 75% | 1015.5 hPa | 0 mm | 2.68 m/s, 33° | - | - |
| 1777475087 | 12.78° C | 77% | 1015.6 hPa | 0 mm | 2.68 m/s, 41° | - | - |
| 1777474787 | 12.78° C | 79% | 1015.9 hPa | 0 mm | 2.24 m/s, 46° | - | - |
| 1777474487 | 12.78° C | 80% | 1015.6 hPa | 0 mm | 1.34 m/s, 278° | - | - |
| 1777474187 | 12.78° C | 79% | 1015.6 hPa | 0 mm | 1.79 m/s, 337° | - | - |
| 1777473887 | 12.78° C | 80% | 1015.6 hPa | 0 mm | 0.89 m/s, 98° | - | - |
| 1777473587 | 12.78° C | 81% | 1015.5 hPa | 0 mm | 0.89 m/s, 79° | - | - |
| 1777473287 | 12.22° C | 81% | 1015.5 hPa | 0 mm | 0.89 m/s, 156° | - | - |
| 1777472987 | 11.67° C | 82% | 1015.6 hPa | 0 mm | 2.24 m/s, 109° | - | - |
| 1777472687 | 11.67° C | 83% | 1015.5 hPa | 0 mm | 3.58 m/s, 60° | - | - |
| 1777472387 | 11.67° C | 83% | 1015.6 hPa | 0 mm | 1.79 m/s, 90° | - | - |
| 1777472087 | 11.67° C | 85% | 1015.5 hPa | 0 mm | 1.34 m/s, 71° | - | - |
| 1777471787 | 11.67° C | 86% | 1015.5 hPa | 0 mm | 0.89 m/s, 5° | - | - |
| 1777471487 | 11.67° C | 87% | 1015.7 hPa | 0 mm | 0.45 m/s, 168° | - | - |
| 1777471187 | 11.11° C | 87% | 1015.8 hPa | 0 mm | 0.89 m/s, 53° | - | - |
| 1777470887 | 11.11° C | 88% | 1015.8 hPa | 0 mm | 0.89 m/s, 340° | - | - |
| 1777470588 | 10.56° C | 90% | 1015.7 hPa | 0 mm | 0.45 m/s, 344° | - | - |
| 1777470288 | 10.56° C | 90% | 1015.7 hPa | 0 mm | 1.79 m/s, 15° | - | - |
| 1777469987 | 10° C | 91% | 1015.7 hPa | 0 mm | 0.45 m/s, 286° | - | - |
| 1777469688 | 10° C | 92% | 1015.6 hPa | 0 mm | 1.79 m/s, 35° | - | - |
| 1777469387 | 10° C | 94% | 1015.7 hPa | 0 mm | 1.79 m/s, 301° | - | - |
| 1777469087 | 10° C | 94% | 1015.6 hPa | 0 mm | 0.89 m/s, 314° | - | - |
* Rain latest hour (hover to see other rain measurements)
** Current wind speed in m/s (hover to see current wind gust speed)